Location: El Álamo
(40.2307°N, 3.9945°W)
Time: 16:00:50
(UTC+00:00)

CZ-4 R/B - Pass Details

Date: 19 May 2025
Orbit: 499 x 550 km, 97.6° (Epoch: 22 June)

Event Time Altitude Azimuth Distance (km) Brightness Sun altitude
Rises 20:22:43 0° 183° (S) 2,710 4.5 -9.5°
Reaches altitude 10° 20:24:55 10° 191° (S) 1,821 3.7 -9.9°
Maximum altitude 20:28:39 40° 262° (W) 818 2.6 -10.4°
Drops below altitude 10° 20:32:23 10° 333° (NNW) 1,827 5.1 -11.0°
Sets 20:34:37 0° 340° (NNW) 2,719 5.9 -11.3°
